Location: Browne Barr
(41.2080°N, 111.9480°W)
Time: 04:19:23
(UTC+00:00)

X-37B - Pass Details

Date: 05 August 2021
Orbit: 381 x 393 km, 45.0° (Epoch: 29 August)

Event Time Altitude Azimuth Distance (km) Brightness Sun altitude
Exits shadow 10:34:08 53° 302° (WNW) 471 0.8 -18.5°
Maximum altitude 10:34:33 61° 344° (NNW) 435 0.9 -18.5°
Drops below altitude 10° 10:37:40 10° 66° (ENE) 1,398 4.5 -18.0°
Sets 10:39:45 0° 70° (ENE) 2,252 5.7 -17.8°
